Location: Unspecified
(0.0000°N, 0.0000°E)
Time: 03:47:39
(UTC+00:00)

N. Korean satellite - Pass Details

Date: 30 September 2022
Orbit: 427 x 468 km, 97.3° (Epoch: 25 September)

Event Time Altitude Azimuth Distance (km) Brightness Sun altitude
Rises 04:05:39 0° 44° (NE) 2,384 10.6 -26.1°
Reaches altitude 10° 04:08:36 10° 75° (ENE) 1,528 10.0 -25.3°
Maximum altitude 04:10:04 13° 102° (ESE) 1,387 9.8 -25.0°
Drops below altitude 10° 04:11:32 10° 128° (SE) 1,538 9.8 -24.6°
Sets 04:14:30 0° 159° (SSE) 2,419 10.4 -23.9°
